HTDAHKJK

Guest
Details From HTDA - Mwalimu Julius K Nyerere Intl
To HKJK - Nairobi Jomo Kanyatta Intl
Flight Number -
Tags Generated
Created
Modified
Stats Distance 360 nm / 667 km
Max Altitude 0 ft / 0 m
Waypoints 3
Social Downloads 0
Likes 0
Share VATSIM

Download

Looking for another format? Having issues loading an existing format? Contact us
Advertisement - Login to hide

Notes

Generated

Route

HTDA R1659 HKJK

ID Type Via Altitude Latitude Longitude Leg Dist Tot Dist Heading (true) Name
O HTDA APT - 0 ft / 0 m -6.87359˚ 39.19790˚ - 0 nm - -
R1659 FIX - 0 ft / 0 m -1.32759˚ 36.91636˚ 360 nm 360 nm 338° / 338° -
O HKJK APT - 0 ft / 0 m -1.32774˚ 36.91612˚ 0 nm 360 nm 238° / 238° -

Altitude Profile

Advertisement - Login to hide

Weather


0- 5 10 15 20 25 30 35+ Temperature / ° C

Clouds and Precipitation
Forecast for 2018-05-22 12:00 UTC. Updated 3 hours ago

Ground ~20,000 ft ~40,000 ft Winds

HTDA

Details ICAO HTDA (DAR)
Name MWALIMU JULIUS K NYERERE INTL
Region Tanzania
Timezone Africa/Dar_es_Salaam (UTC+3.0)
Stats Elevation 182 ft / 55 m (AMSL)
Location -6.875048° 39.204265°
Runways 2
Magnetic Variation 2.126° W

METAR

HTDA 221300Z 16013KT 9999 SCT021 SCT080 29/23 Q1013 NOSIG

Decode

TAF

TAF HTDA 221100Z 2212/2318 12010KT 9999 BKN021 PROB30 TEMPO 2212/2215 RA BECMG 2215/2218 NSW FEW017 FM222200 00000KT

Decode

Departure Runways

ID Width Length Bearing (true) Bearing (mag) Surface Threshold Offset Overrun Length
05 151 ft / 46 m 9,868 ft / 3,008 m 44.94° 47.07° Asphalt 0 ft / 0 m 197 ft / 60 m
14 98 ft / 30 m 3,303 ft / 1,007 m 135.15° 137.28° Asphalt 0 ft / 0 m 0 ft / 0 m
23 151 ft / 46 m 9,868 ft / 3,008 m 224.94° 227.07° Asphalt 0 ft / 0 m 197 ft / 60 m
32 98 ft / 30 m 3,303 ft / 1,007 m 315.15° 317.28° Asphalt 0 ft / 0 m 299 ft / 91 m

HKJK

Details ICAO HKJK (NBO)
Name Nairobi Jomo Kanyatta Intl
Region Kenya
Timezone Africa/Nairobi (UTC+3.0)
Stats Elevation 5,330 ft / 1,625 m (AMSL)
Location -1.317073° 36.930757°
Runways 1
Magnetic Variation 0.591° E

METAR

HKJK 221400Z 13009KT 9999 FEW020CB SCT023 BKN080 21/15 Q1021

Decode

TAF

TAF HKJK 220500Z 2206/2312 18005KT 9999 SCT020 BKN080 TEMPO 2212/2218 16010KT SCT023 BKN024 BECMG 2220/2223 17005KT SCT021 BKN080 TEMPO 2300/2306 -DZ SCT007 BKN015 BECMG 2308/2311 18010KT BKN024

Decode

Destination Runways

ID Width Length Bearing (true) Bearing (mag) Surface Threshold Offset Overrun Length
06 148 ft / 45 m 13,215 ft / 4,028 m 53.90° 53.31° Asphalt 0 ft / 0 m 194 ft / 59 m
24 148 ft / 45 m 13,215 ft / 4,028 m 233.90° 233.31° Asphalt 0 ft / 0 m 197 ft / 60 m

Approach Navaids

Runway Type Ident Frequency Range Bearing (true) Bearing (mag) Slope Elevation
06 Localiser INL 110.30 MHz 18 nm / 33 km 53.84° 53.25° - 5,278 ft / 1,609 m (AMSL)
06 Glidescope INL 110.30 MHz 10 nm / 19 km 53.90° 53.31° 3.00° 5,343 ft / 1,629 m (AMSL)

Popular Alternatives